Wind_Speed
10 10 10 10 11 12 12 12 13 13 13 14 14 14 14 15 15 15 16 16 17 18 19 18 18 18 19 20 20 21 22 23 23 23 23 23 23 23
10 10 11 11 11 12 12 13 13 14 14 14 14 14 15 15 15 15 16 17 17 18 19 18 18 19 20 20 20 21 22 23 23 23 23 24 24 24
11 11 11 12 12 12 13 13 14 14 14 14 14 15 15 16 16 16 17 17 18 18 18 19 19 20 21 21 21 22 22 22 23 23 24 24 24 24
12 12 12 13 13 13 14 14 15 14 14 14 15 16 16 17 17 18 18 19 19 19 19 20 21 21 22 22 22 22 22 22 22 21 22 23 23 24
12 12 13 13 13 14 15 15 15 15 15 16 16 16 17 18 18 19 19 20 20 20 20 21 21 21 22 22 22 23 23 23 23 23 23 24 24 25
13 14 14 14 14 15 15 16 16 16 16 17 17 17 18 19 19 19 20 21 21 21 22 22 22 22 22 22 22 23 23 24 23 23 24 24 25 25
15 15 15 15 16 16 17 17 17 17 18 18 19 19 19 20 20 20 21 21 22 22 23 23 23 23 23 23 23 23 24 24 24 24 25 25 25 25
16 16 17 18 18 18 19 18 18 19 19 19 20 20 21 21 21 21 22 22 23 23 24 24 24 24 24 25 25 25 26 25 25 25 26 26 26 26
17 18 19 19 20 20 20 20 20 20 20 21 21 22 22 23 23 23 23 24 24 24 24 25 25 26 26 26 26 27 27 27 27 27 27 27 27 27
19 19 20 20 20 21 21 21 21 21 22 22 22 23 23 23 24 24 25 26 26 26 26 26 27 28 28 28 28 28 28 28 28 28 28 28 29 29
21 21 22 22 23 23 23 23 23 23 23 23 23 24 24 25 25 25 26 27 27 27 27 28 28 28 29 29 29 29 29 28 29 29 29 29 29 29
23 23 24 24 25 25 24 24 24 25 25 25 25 25 26 26 26 26 27 28 28 28 28 29 29 30 30 29 29 29 29 29 29 29 30 30 31 30
25 25 25 25 26 26 26 25 26 26 26 27 27 27 27 27 28 28 29 29 29 29 30 30 30 31 31 31 30 30 30 30 30 30 30 31 31 31
26 26 26 26 27 27 28 28 28 28 28 29 29 28 28 28 28 29 30 30 30 30 31 31 31 31 31 31 31 31 31 31 30 30 31 31 31 31
26 27 27 28 28 29 29 29 29 30 30 30 29 29 29 29 29 30 30 30 30 30 31 31 31 31 31 31 31 31 31 31 31 31 30 30 31 30
28 28 29 29 30 30 30 30 30 30 31 30 30 30 30 30 30 30 31 31 31 31 32 32 32 31 31 31 31 31 31 31 31 31 30 30 29 29
29 29 30 30 31 31 31 31 31 31 31 31 31 32 32 32 32 32 32 32 32 32 32 32 31 31 31 31 31 31 31 31 31 30 30 29 29 28
30 30 30 31 31 32 31 31 31 31 32 32 32 32 32 32 32 32 32 32 32 32 32 32 32 31 31 31 31 31 31 31 31 31 29 29 28 28
31 31 31 32 32 33 32 31 32 32 32 32 32 32 32 33 33 32 31 31 31 31 31 31 31 31 30 30 30 30 31 30 30 29 29 28 28 28
31 32 32 32 33 33 32 32 32 33 33 33 32 32 32 32 31 31 31 31 32 31 31 30 30 30 30 30 31 30 30 30 29 28 28 28 28 28
32 32 32 33 33 33 32 32 33 33 33 32 31 31 31 30 30 31 31 31 31 30 30 30 30 30 30 30 31 30 30 30 30 29 28 28 27 27
33 33 32 33 34 33 32 33 33 32 32 31 31 30 30 30 31 32 32 31 31 30 30 30 30 30 30 30 30 30 29 30 29 29 28 28 27 26
33 33 33 33 33 33 33 33 33 33 32 32 31 31 31 31 32 32 32 32 31 31 30 30 30 30 30 29 30 29 29 28 29 29 28 28 27 26
Wind_Direction
314 313 311 311 313 313 311 311 312 311 307 305 304 303 301 301 301 302 303 302 299 299 299 299 297 297 297 297 292 290 290 289 288 288 287 287 286 286
317 315 312 310 311 312 312 311 311 311 310 307 305 303 303 303 304 304 302 302 302 301 300 299 299 299 299 298 296 295 294 290 289 288 288 288 287 287
312 311 310 309 309 311 313 312 311 311 310 308 306 303 303 303 304 304 304 303 303 303 303 301 300 299 298 298 299 300 298 294 292 290 288 289 288 287
311 311 310 309 311 312 314 313 311 310 309 307 305 303 304 304 304 304 305 304 304 305 304 303 302 302 300 300 300 301 300 298 296 295 293 291 291 290
312 312 311 310 310 309 309 310 309 309 308 306 305 304 303 303 304 304 307 307 307 306 306 306 305 304 303 302 301 300 299 297 297 296 296 296 295 293
309 309 309 308 309 309 308 308 307 306 306 305 305 304 303 302 302 303 304 305 305 305 306 306 305 305 304 304 303 302 300 298 298 297 297 297 296 295
308 308 309 308 308 307 307 306 305 305 306 305 303 303 303 302 302 303 305 306 306 306 306 306 305 306 306 305 304 303 302 300 299 298 297 296 296 296
305 306 307 308 306 306 304 303 303 304 305 305 304 303 302 302 303 304 305 306 306 306 306 305 305 305 304 304 303 303 302 300 298 297 296 294 295 296
303 304 306 307 307 305 304 303 303 302 303 303 303 303 303 302 303 303 304 304 305 304 304 304 304 304 304 303 301 301 301 300 299 297 294 293 294 295
299 299 301 303 303 303 303 303 303 303 303 301 302 302 302 302 302 302 301 302 302 303 302 303 303 303 302 302 302 300 300 299 298 296 294 293 294 294
297 296 297 300 302 302 302 302 303 303 303 302 301 301 301 301 301 300 300 301 302 302 302 302 302 302 301 301 301 300 300 299 298 296 294 293 294 294
296 296 296 297 298 301 302 301 302 302 301 301 301 301 301 302 301 300 299 298 299 301 301 302 302 302 300 301 302 301 300 299 298 297 297 296 295 294
294 294 295 296 297 299 300 300 300 300 300 300 300 300 301 301 300 299 298 297 298 299 301 301 302 302 301 300 300 300 299 299 297 297 297 297 296 295
295 294 293 295 296 297 297 297 297 297 297 298 299 300 300 301 301 301 300 299 298 298 299 300 302 302 301 301 300 299 298 298 298 298 298 297 296 295
294 293 292 293 293 294 295 295 296 296 298 298 299 299 298 299 299 300 301 300 299 299 299 300 300 300 300 300 300 299 299 300 299 299 299 297 296 295
292 292 291 292 293 293 295 295 295 296 297 298 298 298 298 297 298 298 299 299 300 300 299 299 300 300 300 300 300 301 301 301 299 299 298 296 297 296
294 294 292 291 291 292 293 294 295 296 296 297 297 297 297 296 297 297 298 299 300 300 300 299 300 300 300 300 301 301 301 301 300 298 297 295 295 295
293 293 293 294 294 293 292 293 294 295 296 297 297 297 297 297 297 297 298 299 299 300 300 300 301 300 300 300 300 301 302 301 301 299 298 296 295 295
290 291 293 293 295 296 293 292 292 293 295 297 297 297 297 297 297 297 297 298 299 301 301 301 301 301 300 300 300 301 301 302 301 301 299 298 297 296
290 291 292 294 294 295 294 293 293 293 294 296 296 296 296 297 298 298 298 298 299 300 302 302 302 300 300 301 301 300 300 301 300 300 299 298 297 297
290 291 292 294 294 295 295 294 294 294 294 295 295 295 296 297 297 298 298 298 299 301 302 302 302 301 301 300 301 302 301 300 299 298 298 297 297 297
290 290 292 294 294 294 294 295 295 294 295 296 296 295 295 296 297 299 298 297 298 299 300 301 301 301 301 299 301 302 301 300 299 298 298 297 297 298
289 289 291 293 294 293 293 295 295 294 294 294 294 294 295 296 298 298 297 297 298 299 299 301 301 301 300 300 301 302 301 300 299 298 296 296 297 297
Height
5881 5879 5878 5876 5875 5874 5872 5871 5870 5868 5866 5864 5863 5861 5860 5859 5857 5856 5854 5852 5851 5849 5848 5846 5844 5843 5841 5839 5837 5836 5834 5832 5830 5829 5828 5826 5824 5823
5879 5877 5876 5874 5873 5871 5870 5868 5867 5865 5863 5861 5859 5858 5857 5855 5854 5852 5850 5849 5847 5845 5843 5842 5840 5839 5837 5835 5833 5831 5828 5826 5824 5823 5821 5820 5818 5817
5877 5875 5873 5872 5870 5869 5867 5865 5863 5862 5860 5858 5856 5855 5853 5852 5850 5849 5847 5845 5843 5841 5839 5837 5836 5834 5832 5830 5828 5826 5824 5821 5819 5817 5816 5814 5812 5810
5875 5873 5871 5869 5867 5866 5864 5862 5860 5859 5857 5855 5853 5851 5850 5848 5847 5845 5843 5841 5839 5837 5835 5833 5831 5829 5827 5825 5823 5821 5819 5816 5814 5812 5810 5808 5806 5804
5872 5870 5868 5866 5864 5863 5861 5859 5857 5855 5853 5852 5850 5848 5846 5845 5843 5841 5839 5837 5835 5833 5831 5829 5827 5824 5822 5820 5818 5815 5813 5811 5809 5806 5804 5802 5800 5798
5869 5867 5865 5863 5861 5859 5857 5855 5853 5852 5850 5848 5846 5844 5843 5840 5839 5837 5835 5832 5830 5828 5826 5824 5822 5819 5817 5814 5812 5810 5807 5805 5803 5801 5798 5796 5794 5792
5866 5864 5862 5860 5858 5856 5854 5852 5850 5848 5846 5844 5842 5840 5838 5836 5834 5832 5830 5827 5825 5823 5821 5819 5816 5814 5811 5809 5806 5804 5801 5799 5796 5794 5792 5790 5787 5785
5863 5861 5859 5856 5854 5852 5850 5847 5846 5844 5842 5840 5838 5835 5833 5831 5829 5827 5825 5822 5820 5818 5815 5813 5811 5808 5805 5803 5800 5797 5795 5792 5790 5788 5785 5783 5780 5778
5859 5857 5855 5853 5850 5848 5845 5843 5841 5839 5837 5835 5833 5830 5828 5826 5824 5821 5819 5817 5815 5812 5810 5807 5804 5802 5799 5796 5793 5791 5788 5786 5783 5781 5778 5776 5773 5771
5855 5853 5850 5848 5846 5843 5841 5839 5836 5834 5831 5829 5827 5825 5822 5820 5818 5815 5813 5811 5808 5806 5803 5801 5798 5795 5792 5789 5786 5784 5781 5778 5776 5773 5771 5768 5766 5764
5850 5847 5845 5843 5841 5839 5836 5834 5831 5828 5826 5823 5821 5818 5816 5813 5811 5809 5806 5804 5802 5799 5796 5793 5791 5788 5785 5782 5779 5776 5773 5771 5768 5766 5763 5761 5758 5756
5844 5842 5840 5838 5835 5833 5830 5828 5825 5823 5820 5817 5815 5812 5809 5807 5804 5802 5799 5797 5794 5792 5789 5786 5783 5780 5777 5774 5771 5768 5765 5763 5760 5757 5755 5752 5750 5747
5838 5836 5834 5831 5829 5826 5824 5822 5819 5816 5814 5811 5808 5805 5803 5800 5797 5794 5792 5789 5787 5784 5781 5778 5775 5772 5769 5766 5763 5760 5758 5755 5752 5749 5746 5744 5741 5739
5831 5829 5827 5824 5822 5820 5817 5815 5812 5809 5807 5804 5801 5798 5795 5793 5790 5786 5783 5780 5778 5775 5772 5769 5766 5763 5760 5757 5755 5752 5749 5746 5743 5741 5738 5735 5732 5729
5823 5821 5819 5817 5814 5812 5810 5807 5804 5801 5799 5796 5793 5791 5788 5785 5782 5779 5776 5772 5770 5766 5764 5761 5758 5755 5752 5749 5746 5743 5740 5737 5734 5731 5729 5726 5723 5721
5815 5813 5811 5809 5807 5804 5802 5799 5796 5793 5790 5788 5785 5782 5780 5777 5774 5771 5768 5765 5762 5758 5755 5752 5749 5746 5743 5740 5737 5734 5731 5729 5726 5722 5720 5717 5714 5712
5807 5805 5803 5800 5798 5795 5793 5790 5788 5785 5782 5779 5777 5774 5771 5768 5765 5762 5759 5756 5753 5750 5747 5744 5740 5737 5734 5731 5729 5726 5723 5720 5716 5713 5711 5708 5706 5703
5799 5796 5794 5792 5789 5786 5783 5781 5779 5776 5773 5770 5768 5765 5762 5759 5756 5753 5750 5747 5744 5741 5738 5735 5732 5728 5725 5723 5720 5717 5714 5711 5708 5704 5702 5699 5697 5695
5790 5787 5785 5782 5780 5777 5774 5772 5769 5767 5764 5761 5758 5755 5753 5750 5747 5744 5741 5738 5735 5732 5729 5726 5722 5719 5716 5714 5711 5708 5705 5702 5699 5696 5693 5691 5689 5687
5781 5778 5776 5773 5770 5767 5764 5762 5759 5757 5754 5751 5749 5746 5743 5740 5738 5735 5732 5729 5726 5723 5720 5717 5714 5710 5707 5705 5702 5699 5696 5693 5690 5687 5685 5682 5680 5678
5771 5769 5766 5763 5761 5758 5755 5752 5750 5747 5744 5742 5739 5737 5734 5732 5729 5726 5723 5720 5717 5714 5711 5708 5705 5702 5698 5696 5693 5690 5687 5684 5681 5679 5676 5674 5672 5670
5761 5759 5756 5754 5751 5748 5746 5743 5740 5738 5735 5732 5730 5728 5725 5723 5720 5717 5714 5711 5709 5706 5703 5700 5696 5693 5690 5687 5684 5681 5678 5675 5673 5670 5668 5666 5664 5662
5752 5750 5747 5744 5741 5739 5736 5734 5731 5728 5726 5723 5721 5719 5716 5714 5711 5708 5705 5702 5700 5697 5694 5691 5688 5685 5682 5679 5676 5673 5670 5667 5664 5662 5660 5658 5656 5654